Location: Audinghen
(50.8518°N, 1.6129°E)
Time: 23:05:57
(UTC+00:00)

Cosmos 1908 Rocket - Pass Details

Date: 07 August 2020
Orbit: 606 x 632 km, 82.5° (Epoch: 23 September)

Event Time Altitude Azimuth Distance (km) Brightness Sun altitude
Exits shadow 00:21:09 62° 245° (WSW) 702 3.6 -22.6°
Maximum altitude 00:21:36 67° 282° (WNW) 675 3.6 -22.6°
Drops below altitude 10° 00:25:59 10° 6° (N) 1,988 7.3 -22.6°
Sets 00:28:14 0° 9° (N) 2,894 8.5 -22.5°
